| time (UTC) | temp C | wind direction | speed KPH | gust KPH | rain 1hr cm | rain 24hr cm | rain mn cm | humidity % | barometer mb |
| 20260505041544 | 10 | 0.0 | 0.0 | 0.00 | 0.00 | 0.00 | 79 | 1006.9 | |
| 20260505040041 | 10 | 0.0 | 0.0 | 0.00 | 0.00 | 0.00 | 78 | 1007.0 | |
| 20260505034540 | 10 | 0.0 | 0.0 | 0.00 | 0.00 | 0.00 | 78 | 1007.0 | |
| 20260505033041 | 10 | 0.0 | 0.0 | 0.00 | 0.00 | 0.00 | 77 | 1007.1 | |
| 20260505031551 | 11 | 0.0 | 0.0 | 0.00 | 0.00 | 0.00 | 77 | 1007.1 | |
| 20260505030035 | 11 | 0.0 | 0.0 | 0.00 | 0.00 | 0.00 | 76 | 1007.1 | |
| 20260505024545 | 11 | 0.0 | 0.0 | 0.00 | 0.00 | 0.00 | 76 | 1007.2 | |
| 20260505023039 | 11 | 0.0 | 0.0 | 0.00 | 0.00 | 0.00 | 75 | 1007.2 | |
| 20260505021530 | 11 | 0.0 | 0.0 | 0.00 | 0.00 | 0.00 | 75 | 1007.3 | |
| 20260505020029 | 11 | 0.0 | 0.0 | 0.00 | 0.00 | 0.00 | 74 | 1007.4 | |
| 20260505014535 | 11 | 0.0 | 0.0 | 0.00 | 0.00 | 0.00 | 73 | 1007.4 | |
| 20260505013024 | 12 | 0.0 | 0.0 | 0.00 | 0.00 | 0.00 | 71 | 1007.5 | |
| 20260505011522 | 12 | 0.0 | 0.0 | 0.00 | 0.00 | 0.00 | 70 | 1007.5 | |
| 20260505010021 | 12 | 0.0 | 0.0 | 0.00 | 0.00 | 0.00 | 68 | 1007.6 | |
| 20260505004518 | 13 | 0.0 | 0.0 | 0.00 | 0.00 | 0.00 | 66 | 1007.7 | |
| 20260505003014 | 13 | 0.0 | 0.0 | 0.00 | 0.00 | 0.00 | 65 | 1007.7 | |
| 20260505001512 | 14 | 0.0 | 0.0 | 0.00 | 0.00 | 0.00 | 63 | 1007.8 | |
| 20260505000011 | 15 | 0.0 | 0.0 | 0.00 | 0.00 | 0.00 | 61 | 1007.8 | |
| 20260504234504 | 15 | 0.0 | 0.0 | 0.00 | 0.00 | 0.00 | 59 | 1008.0 | |
| 20260504233104 | 16 | 0.0 | 0.0 | 0.00 | 0.00 | 0.00 | 56 | 1008.1 | |
| 20260504231600 | 16 | 0.0 | 0.0 | 0.00 | 0.00 | 0.00 | 56 | 1008.2 | |
| 20260504230059 | 16 | 0.0 | 0.0 | 0.00 | 0.00 | 0.00 | 56 | 1008.2 | |
| 20260504224556 | 16 | 0.0 | 0.0 | 0.00 | 0.00 | 0.00 | 56 | 1008.3 | |
| 20260504223054 | 16 | 0.0 | 0.0 | 0.00 | 0.00 | 0.00 | 55 | 1008.5 | |
| 20260504221552 | 17 | 0.0 | 0.0 | 0.00 | 0.00 | 0.00 | 54 | 1008.5 | |
| 20260504220048 | 17 | 0.0 | 0.0 | 0.00 | 0.00 | 0.00 | 52 | 1008.6 | |
| 20260504214553 | 17 | 0.0 | 0.0 | 0.00 | 0.00 | 0.00 | 50 | 1008.7 | |
| 20260504213045 | 18 | 0.0 | 0.0 | 0.00 | 0.00 | 0.00 | 49 | 1008.8 | |
| 20260504211545 | 18 | 0.0 | 0.0 | 0.00 | 0.00 | 0.00 | 48 | 1008.9 | |
| 20260504210056 | 18 | 0.0 | 0.0 | 0.00 | 0.00 | 0.00 | 46 | 1008.9 | |
| 20260504204558 | 19 | 0.0 | 0.0 | 0.00 | 0.00 | 0.00 | 45 | 1009.0 | |
| 20260504203054 | 19 | 0.0 | 0.0 | 0.00 | 0.00 | 0.00 | 44 | 1008.9 | |
| 20260504201543 | 19 | 0.0 | 0.0 | 0.00 | 0.00 | 0.00 | 44 | 1009.0 | |
| 20260504200043 | 19 | 0.0 | 0.0 | 0.00 | 0.00 | 0.00 | 43 | 1009.1 | |
| 20260504194542 | 20 | 0.0 | 0.0 | 0.00 | 0.00 | 0.00 | 42 | 1009.2 | |
| 20260504193042 | 20 | 0.0 | 0.0 | 0.00 | 0.00 | 0.00 | 41 | 1009.2 | |
| 20260504191541 | 20 | 0.0 | 0.0 | 0.00 | 0.00 | 0.00 | 40 | 1009.2 | |
| 20260504190041 | 21 | 0.0 | 0.0 | 0.00 | 0.00 | 0.00 | 39 | 1009.1 | |
| 20260504184540 | 21 | 0.0 | 0.0 | 0.00 | 0.00 | 0.00 | 38 | 1009.0 | |
| 20260504183040 | 21 | 0.0 | 0.0 | 0.00 | 0.00 | 0.00 | 37 | 1008.9 | |
| 20260504181539 | 22 | 0.0 | 0.0 | 0.00 | 0.00 | 0.00 | 35 | 1008.8 | |
| 20260504180039 | 22 | 0.0 | 0.0 | 0.00 | 0.00 | 0.00 | 35 | 1008.8 | |
| 20260504174538 | 23 | 0.0 | 0.0 | 0.00 | 0.00 | 0.00 | 33 | 1008.8 | |
| 20260504173040 | 24 | 0.0 | 0.0 | 0.00 | 0.00 | 0.00 | 32 | 1008.8 | |
| 20260504171538 | 25 | 0.0 | 0.0 | 0.00 | 0.00 | 0.00 | 30 | 1008.8 | |
| 20260504081534 | 19 | 0.0 | 0.0 | 0.00 | 0.00 | 0.00 | 50 | 1013.6 | |
| 20260504050014 | 15 | 0.0 | 0.0 | 0.00 | 0.00 | 0.00 | 60 | 1012.6 |